KOREASAT 6A

Last updated on Sun Apr 12 2026 00:02:56 GMT+0000 (Coordinated Universal Time)

1 61910U 24206A 26101.49697406 -.00000360 00000+0 00000+0 0 9994 2 61910 0.0221 135.2569 0000807 239.6746 119.6882 1.00274001 5170
UTC large
Height (km)
Speed (km/s)
/
Latitude / Longitude
Inclination (degrees)
Orbital Period (minutes)
Azimuth
Elevation
Range (km)
Doppler Factor

Next 0 passes for location: London (51.5072 / 0.1276)

Sorry there are no passes over London.
KOREASAT 6A